User: anonymous   Login
Location: Geremba
(10.4250°N, 67.2394°W)
Time: 06:20:52
(UTC+00:00)
Language:

Meteor 2-21 Rocket - Orbit

View from above orbital plane
View from above orbital plane
View from above satellite
View from above satellite

Ground track
Ground track

The orbit data is extracted from the following two-line orbital elements,

1 22784U 93055C   24204.35127730  .00000073  00000-0  52461-4 0  9997
2 22784  82.5517 130.9713 0022402  14.4822 105.1892 13.83498438559644
Epoch (UTC): 22 July 2024 08:25:50
Eccentricity: 0.0022402
inclination: 82.5517°
perigee height: 935 km
apogee height: 968 km
right ascension of ascending node: 130.9713°
argument of perigee: 14.4822°
revolutions per day: 13.83498438
mean anomaly at epoch: 105.1892°
orbit number at epoch: 55964

The dashed part of the orbit path shows where the satellite is in the earth's shadow,  

DLR